Date String (YYYY-MM-DD hh:mm:ss) UTC,Instrument flags,Ambient pressure (hPa),Sample flow (lpm),Bypass flow (lpm),Sample temperature (°C),Ambient temperature (°C),ASC tube jacket temperature (°C),LED temperature (°C),Box temperature (°C),Sample RH (%),Span deviation,Mass concentration (μg/m³),Mass concentration (μg/m³),Mass concentration (μg/m³)
DateTimeUTC,F1_M11,P_M11,Q1_M11,Q2_M11,T1_M11,T2_M11,T3_M11,T4_M11,T5_M11,U1_M11,ZSPAN_M11,X0_M11,X2_M11,X1_M11
2022-07-08 02:00:00,,0830.5,5.00,0.00,29.3,27.6,00.0,38.1,31.2,33.6,0000.0,0010.10,0004.05,0003.21
2022-07-08 02:01:00,,0830.5,4.99,0.00,29.3,27.8,00.0,38.1,31.3,33.7,0000.0,0010.33,0004.06,0003.22
2022-07-08 02:02:00,,0830.5,5.00,0.00,29.4,27.9,00.0,38.1,31.3,33.7,0000.0,0010.42,0004.04,0003.23
2022-07-08 02:03:00,,0830.5,5.01,0.00,29.4,28.1,00.0,38.1,31.4,33.8,0000.0,0010.39,0004.03,0003.23
2022-07-08 02:04:00,,0830.5,5.00,0.00,29.4,28.3,00.0,38.1,31.4,33.8,0000.0,0010.43,0004.05,0003.24
2022-07-08 02:05:00,,0830.5,5.00,0.00,29.5,28.4,00.0,38.2,31.5,33.7,0000.0,0010.78,0004.09,0003.26
2022-07-08 02:06:00,,0830.5,4.99,0.00,29.5,28.5,00.0,38.2,31.6,33.7,0000.0,0010.89,0004.09,0003.27
2022-07-08 02:07:00,,0830.5,5.00,0.00,29.6,28.3,00.0,38.2,31.6,33.7,0000.0,0010.99,0004.13,0003.29
2022-07-08 02:08:00,,0830.5,5.01,0.00,29.6,27.8,00.0,38.1,31.5,33.7,0000.0,0011.45,0004.20,0003.31
2022-07-08 02:09:00,,0830.5,5.01,0.00,29.5,27.5,00.0,38.1,31.4,33.8,0000.0,0011.45,0004.24,0003.36
2022-07-08 02:10:00,,0830.5,5.00,0.00,29.5,27.5,00.0,38.2,31.3,34.0,0000.0,0010.56,0004.27,0003.39
2022-07-08 02:11:00,,0830.5,5.00,0.00,29.4,27.6,00.0,38.2,31.3,34.1,0000.0,0010.63,0004.29,0003.43
2022-07-08 02:12:00,,0830.4,4.99,0.00,29.4,27.7,00.0,38.2,31.3,34.1,0000.0,0010.57,0004.32,0003.45
2022-07-08 02:13:00,,0830.4,5.00,0.00,29.4,27.9,00.0,38.2,31.4,34.1,0000.0,0010.71,0004.35,0003.48
2022-07-08 02:14:00,,0830.4,5.01,0.00,29.5,28.0,00.0,38.2,31.4,34.0,0000.0,0010.85,0004.34,0003.50
2022-07-08 02:15:00,,0830.4,5.00,0.00,29.5,28.2,00.0,38.2,31.5,34.1,0000.0,0011.17,0004.40,0003.52
2022-07-08 02:16:00,,0830.4,4.99,0.00,29.5,28.3,00.0,38.2,31.5,33.8,0000.0,0010.85,0004.36,0003.53
2022-07-08 02:17:00,,0830.4,5.00,0.00,29.6,28.4,00.0,38.2,31.6,33.5,0000.0,0010.77,0004.38,0003.55
2022-07-08 02:18:00,,0830.4,5.00,0.00,29.6,28.4,00.0,38.2,31.6,33.7,0000.0,0010.76,0004.40,0003.56
2022-07-08 02:19:00,,0830.4,4.99,0.00,29.6,27.7,00.0,38.2,31.5,33.7,0000.0,0010.37,0004.37,0003.57
2022-07-08 02:20:00,,0830.4,4.99,0.00,29.5,27.1,00.0,38.1,31.4,33.6,0000.0,0009.62,0004.34,0003.56
2022-07-08 02:21:00,,0830.4,5.00,0.00,29.5,27.0,00.0,38.1,31.2,33.8,0000.0,0009.35,0004.34,0003.54
2022-07-08 02:22:00,,0830.4,5.00,0.00,29.4,27.0,00.0,38.1,31.2,33.9,0000.0,0008.98,0004.34,0003.52
2022-07-08 02:23:00,,0830.5,5.00,0.00,29.4,27.2,00.0,38.1,31.2,33.8,0000.0,0008.95,0004.34,0003.52
2022-07-08 02:24:00,,0830.6,5.01,0.00,29.3,27.3,00.0,38.1,31.2,34.0,0000.0,0008.86,0004.37,0003.51
2022-07-08 02:25:00,,0830.6,5.00,0.00,29.3,27.5,00.0,38.1,31.2,34.2,0000.0,0008.82,0004.39,0003.50
2022-07-08 02:26:00,,0830.6,5.00,0.00,29.3,27.7,00.0,38.1,31.3,34.1,0000.0,0008.77,0004.38,0003.49
2022-07-08 02:27:00,,0830.6,5.01,0.00,29.4,27.9,00.0,38.1,31.3,34.2,0000.0,0009.29,0004.37,0003.49
2022-07-08 02:28:00,,0830.6,5.00,0.00,29.4,28.0,00.0,38.1,31.4,34.2,0000.0,0009.61,0004.35,0003.48
2022-07-08 02:29:00,,0830.6,4.99,0.00,29.4,28.2,00.0,38.1,31.4,34.0,0000.0,0010.72,0004.33,0003.48
2022-07-08 02:30:00,,0830.6,5.00,0.00,29.5,28.3,00.0,38.2,31.5,33.8,0000.0,0011.21,0004.35,0003.46
2022-07-08 02:31:00,,0830.6,5.00,0.00,29.5,28.4,00.0,38.2,31.5,33.5,0000.0,0011.25,0004.36,0003.47
2022-07-08 02:32:00,,0830.6,5.01,0.00,29.5,28.5,00.0,38.2,31.6,33.2,0000.0,0011.34,0004.39,0003.48
2022-07-08 02:33:00,,0830.6,5.01,0.00,29.6,28.6,00.0,38.2,31.6,32.9,0000.0,0011.22,0004.35,0003.46
2022-07-08 02:34:00,,0830.6,5.00,0.00,29.6,28.2,00.0,38.2,31.6,32.8,0000.0,0011.08,0004.30,0003.44
2022-07-08 02:35:00,,0830.6,5.00,0.00,29.6,27.4,00.0,38.1,31.4,32.8,0000.0,0010.92,0004.24,0003.42
2022-07-08 02:36:00,,0830.6,5.00,0.00,29.5,27.0,00.0,38.1,31.3,32.9,0000.0,0010.75,0004.17,0003.40
2022-07-08 02:37:00,,0830.6,4.99,0.00,29.4,27.0,00.0,38.1,31.2,33.1,0000.0,0010.57,0004.14,0003.38
2022-07-08 02:38:00,,0830.6,5.00,0.00,29.4,27.1,00.0,38.1,31.2,33.2,0000.0,0010.09,0004.15,0003.37
2022-07-08 02:39:00,,0830.6,5.00,0.00,29.3,27.3,00.0,38.1,31.2,33.3,0000.0,0009.83,0004.15,0003.36
2022-07-08 02:40:00,,0830.6,5.01,0.00,29.3,27.4,00.0,38.1,31.2,33.4,0000.0,0008.85,0004.17,0003.35
2022-07-08 02:41:00,,0830.6,5.00,0.00,29.3,27.6,00.0,38.1,31.2,33.4,0000.0,0008.64,0004.15,0003.33
2022-07-08 02:42:00,,0830.6,5.00,0.00,29.4,27.8,00.0,38.1,31.3,33.5,0000.0,0008.93,0004.16,0003.31
2022-07-08 02:43:00,,0830.7,5.02,0.00,29.4,27.9,00.0,38.1,31.3,33.5,0000.0,0009.50,0004.16,0003.29
2022-07-08 02:44:00,,0830.8,5.00,0.00,29.4,28.1,00.0,38.1,31.4,33.4,0000.0,0009.61,0004.17,0003.29
2022-07-08 02:45:00,,0830.8,5.00,0.00,29.4,28.2,00.0,38.2,31.4,33.5,0000.0,0009.60,0004.19,0003.30
2022-07-08 02:46:00,,0830.8,5.00,0.00,29.5,28.3,00.0,38.2,31.5,33.5,0000.0,0009.58,0004.17,0003.30
2022-07-08 02:47:00,,0830.8,4.99,0.00,29.5,28.5,00.0,38.2,31.5,33.4,0000.0,0009.47,0004.16,0003.31
2022-07-08 02:48:00,,0830.7,5.01,0.00,29.5,28.6,00.0,38.2,31.6,33.3,0000.0,0009.36,0004.16,0003.31
2022-07-08 02:49:00,,0830.8,5.00,0.00,29.6,28.6,00.0,38.2,31.6,33.1,0000.0,0009.42,0004.16,0003.31
2022-07-08 02:50:00,,0830.8,5.00,0.00,29.6,28.1,00.0,38.2,31.6,32.9,0000.0,0009.37,0004.18,0003.32
2022-07-08 02:51:00,,0830.7,5.00,0.00,29.6,27.3,00.0,38.2,31.4,32.7,0000.0,0009.27,0004.16,0003.32
2022-07-08 02:52:00,,0830.7,5.01,0.00,29.5,27.0,00.0,38.1,31.3,32.8,0000.0,0008.99,0004.12,0003.31
2022-07-08 02:53:00,,0830.8,5.01,0.00,29.4,26.9,00.0,38.1,31.2,32.5,0000.0,0008.76,0004.09,0003.31
2022-07-08 02:54:00,,0830.7,5.00,0.00,29.4,27.1,00.0,38.1,31.2,33.0,0000.0,0008.09,0004.03,0003.30
2022-07-08 02:55:00,,0830.8,4.99,0.00,29.3,27.2,00.0,38.1,31.2,33.2,0000.0,0008.02,0003.99,0003.30
2022-07-08 02:56:00,,0830.9,5.00,0.00,29.3,27.4,00.0,38.1,31.2,33.0,0000.0,0008.21,0003.99,0003.31
2022-07-08 02:57:00,,0830.9,5.01,0.00,29.3,27.6,00.0,38.1,31.2,33.0,0000.0,0008.28,0004.00,0003.30
2022-07-08 02:58:00,,0830.9,5.00,0.00,29.3,27.8,00.0,38.1,31.3,33.1,0000.0,0008.29,0004.02,0003.31
2022-07-08 02:59:00,,0830.9,5.00,0.00,29.4,27.9,00.0,38.1,31.3,33.0,0000.0,0008.38,0004.02,0003.30
